CST,Max TemperatureF,Mean TemperatureF,Min TemperatureF,Max Dew PointF,MeanDew PointF,Min DewpointF,Max Humidity, Mean Humidity, Min Humidity, Max Sea Level PressureIn, Mean Sea Level PressureIn, Min Sea Level PressureIn, Max VisibilityMiles, Mean VisibilityMiles, Min VisibilityMiles, Max Wind SpeedMPH, Mean Wind SpeedMPH, Max Gust SpeedMPH,PrecipitationIn, CloudCover, Events, WindDirDegrees
2011-12-1,32,26,16,29,21,8,93,74,53,30.47,30.30,30.08,10,8,2,14,8,18,0.01,4,Snow,352
2011-12-2,33,22,12,24,13,6,81,61,42,30.45,30.24,30.05,10,10,10,17,9,24,0.00,2,,191
2011-12-3,33,30,27,28,26,22,93,86,69,30.10,30.01,29.94,10,3,0,15,6,23,0.18,6,Fog-Snow,277
2011-12-4,28,24,21,27,20,15,93,80,72,30.38,30.12,29.93,10,8,2,12,8,,0.00,8,Snow,317
2011-12-5,21,20,17,16,13,10,81,75,71,30.52,30.46,30.33,10,10,5,12,7,,0.00,8,Snow,328
2011-12-6,16,12,8,10,7,2,80,74,67,30.50,30.31,30.06,10,9,3,17,6,24,0.00,4,Snow,211
2011-12-7,28,20,12,19,12,5,81,72,61,30.10,30.05,29.99,10,10,10,13,7,18,0.00,3,,241
2011-12-8,28,19,8,17,7,0,77,59,44,30.24,30.18,30.11,10,10,10,17,10,29,0.00,1,,263
2011-12-9,17,9,1,2,-2,-5,79,64,47,30.43,30.35,30.24,10,10,10,12,6,,0.00,0,,253
2011-12-10,25,14,3,17,9,-6,82,72,59,30.40,30.25,30.14,10,9,6,16,8,21,0.00,0,,200
2011-12-11,37,29,21,34,26,16,87,80,72,30.12,30.09,30.05,10,6,3,21,12,29,0.00,5,,195
2011-12-12,39,38,37,36,34,33,93,87,82,30.31,30.18,30.08,9,6,2,9,6,,0.00,8,Rain,196
2011-12-13,39,37,35,34,34,33,93,88,82,30.34,30.27,30.09,7,5,2,9,2,,0.02,8,Rain,112
2011-12-14,39,37,35,38,36,34,100,95,89,30.08,29.81,29.62,10,3,1,10,6,17,0.27,8,Rain,100
2011-12-15,37,29,19,36,23,13,93,73,54,30.38,29.94,29.65,10,9,6,23,14,38,0.00,6,,297
2011-12-16,26,22,18,19,14,9,86,70,49,30.45,30.38,30.30,10,8,2,6,2,,0.00,5,Snow,321
2011-12-17,36,28,21,27,22,19,93,82,67,30.33,30.20,30.08,10,8,2,15,3,18,0.00,5,Snow,238
2011-12-18,46,34,23,33,27,19,88,75,58,30.13,29.86,29.71,10,10,10,13,6,,0.00,0,,206
2011-12-19,36,30,21,29,23,17,82,72,56,30.31,30.11,29.77,10,10,10,14,8,20,0.00,4,,331
2011-12-20,32,24,15,20,17,12,93,79,59,30.27,30.02,29.75,10,10,9,13,5,,0.00,0,,202
2011-12-21,32,26,19,27,21,15,89,79,64,30.08,29.79,29.66,10,8,2,10,3,,0.00,5,Snow,326
2011-12-22,28,22,16,20,12,7,81,61,43,30.37,30.27,30.07,10,10,10,14,8,20,0.00,3,,322
2011-12-23,37,27,17,22,17,12,81,67,51,30.30,30.11,29.99,10,9,2,22,9,32,0.00,3,Snow,243
2011-12-24,43,30,16,24,19,13,88,66,45,30.19,30.10,30.03,10,10,10,13,6,21,0.00,0,,233
2011-12-25,42,34,26,24,23,20,84,62,47,30.28,30.19,30.01,10,10,10,16,10,25,0.00,0,,272
2011-12-26,51,39,27,30,23,18,78,52,32,30.15,29.83,29.69,10,10,10,29,13,41,0.00,1,,219
2011-12-27,37,31,24,29,19,11,73,61,47,30.06,29.90,29.69,10,10,10,16,12,26,0.00,4,,330
2011-12-28,37,29,21,30,19,11,79,62,50,30.03,29.83,29.52,10,10,10,12,6,18,0.00,4,Rain,157
2011-12-29,37,32,28,30,27,24,87,77,65,29.67,29.58,29.42,10,9,6,13,8,17,0.00,4,,314
2011-12-30,33,32,30,27,25,23,86,80,69,29.86,29.72,29.62,10,6,2,9,5,,0.00,8,Snow,36
2011-12-31,44,37,30,35,31,27,96,86,68,29.84,29.69,29.54,10,5,1,21,9,26,0.20,7,Rain-Snow,156